N428MC KEYW-KFLL

Flight info

Callsign N428MC
Flight time 0h 33m
Altitude 13000
Route MAYNR DAYAK SAXXN QEPRO
Aircraft B350/M-VGD/A

Departure

Time 2026-05-04 23:54
Airport Key West International Airport (KEYW)

Arrival

Time 2026-05-05 00:27
Airport Fort Lauderdale Hollywood International Airport (KFLL)
Time Latitude Longitude Altitude Speed Heading
2026-05-04 23:34 24.55481 -81.75666 5 ft 0 kts 354°
2026-05-04 23:50 24.55489 -81.75671 5 ft 5 kts 323°
2026-05-04 23:50 24.55504 -81.75678 5 ft 0 kts 357°
2026-05-04 23:51 24.55509 -81.75679 5 ft 0 kts 346°
2026-05-04 23:51 24.55529 -81.75713 5 ft 16 kts 271°
2026-05-04 23:52 24.55525 -81.76025 5 ft 59 kts 269°
2026-05-04 23:52 24.55519 -81.76463 5 ft 55 kts 268°
2026-05-04 23:52 24.55529 -81.76637 5 ft 0 kts 306°
2026-05-04 23:52 24.55545 -81.76656 5 ft 0 kts 13°
2026-05-04 23:53 24.55549 -81.76655 5 ft 7 kts 11°
2026-05-04 23:53 24.55607 -81.76499 5 ft 64 kts 89°
2026-05-04 23:54 24.55623 -81.75650 129 ft 140 kts 89°
2026-05-04 23:54 24.55841 -81.74541 788 ft 163 kts 43°
2026-05-04 23:54 24.56938 -81.74513 1655 ft 160 kts 348°
2026-05-04 23:54 24.57900 -81.74686 2650 ft 147 kts 352°
2026-05-04 23:55 24.58973 -81.74859 3359 ft 157 kts 351°
2026-05-04 23:55 24.59958 -81.74896 4387 ft 143 kts
2026-05-04 23:55 24.61953 -81.73890 5481 ft 183 kts 34°
2026-05-04 23:56 24.62997 -81.73038 6064 ft 195 kts 33°
2026-05-04 23:56 24.64100 -81.72155 6709 ft 201 kts 33°
2026-05-04 23:56 24.65233 -81.71254 7380 ft 204 kts 32°
2026-05-04 23:56 24.66366 -81.70355 8058 ft 205 kts 32°
2026-05-04 23:57 24.67523 -81.69437 8710 ft 207 kts 33°
2026-05-04 23:57 24.68688 -81.68514 9334 ft 209 kts 32°
2026-05-04 23:57 24.69862 -81.67584 9947 ft 210 kts 32°
2026-05-04 23:57 24.71062 -81.66631 10621 ft 215 kts 31°
2026-05-04 23:58 24.72272 -81.65670 11350 ft 215 kts 30°
2026-05-04 23:58 24.73472 -81.64719 12081 ft 213 kts 29°
2026-05-04 23:58 24.74657 -81.63779 12746 ft 214 kts 28°
2026-05-04 23:58 24.75932 -81.62772 12967 ft 240 kts 29°
2026-05-04 23:59 24.77378 -81.61625 13001 ft 268 kts 30°
2026-05-04 23:59 24.78927 -81.60390 12993 ft 282 kts 30°
2026-05-04 23:59 24.80533 -81.59112 13002 ft 288 kts 30°
2026-05-04 23:59 24.82202 -81.57786 13004 ft 294 kts 30°
2026-05-05 00:00 24.83855 -81.56471 12983 ft 298 kts 30°
2026-05-05 00:00 24.84421 -81.56021 12980 ft 299 kts 30°
2026-05-05 00:00 24.87252 -81.53770 12980 ft 303 kts 30°
2026-05-05 00:00 24.88979 -81.52396 12979 ft 305 kts 31°
2026-05-05 00:01 24.90697 -81.51027 12979 ft 306 kts 30°
2026-05-05 00:01 24.92413 -81.49663 12978 ft 307 kts 31°
2026-05-05 00:01 24.94165 -81.48266 12980 ft 308 kts 30°
2026-05-05 00:01 24.95900 -81.46884 12978 ft 308 kts 30°
2026-05-05 00:02 24.97621 -81.45515 12978 ft 308 kts 30°
2026-05-05 00:02 24.99366 -81.44125 12975 ft 309 kts 31°
2026-05-05 00:02 25.01105 -81.42738 12983 ft 309 kts 30°
2026-05-05 00:02 25.02858 -81.41340 12985 ft 309 kts 31°
2026-05-05 00:03 25.04597 -81.39952 12983 ft 309 kts 31°
2026-05-05 00:03 25.06338 -81.38563 12982 ft 309 kts 31°
2026-05-05 00:03 25.08065 -81.37183 12986 ft 309 kts 31°
2026-05-05 00:03 25.09830 -81.35772 12983 ft 310 kts 30°
2026-05-05 00:04 25.11542 -81.34404 12978 ft 310 kts 31°
2026-05-05 00:04 25.13290 -81.33006 12977 ft 309 kts 31°
2026-05-05 00:04 25.15000 -81.31568 12979 ft 310 kts 33°
2026-05-05 00:04 25.16703 -81.30093 12975 ft 310 kts 34°
2026-05-05 00:05 25.18400 -81.28623 12976 ft 310 kts 33°
2026-05-05 00:05 25.20086 -81.27165 12978 ft 309 kts 33°
2026-05-05 00:05 25.21788 -81.25691 12978 ft 309 kts 33°
2026-05-05 00:05 25.23484 -81.24223 12978 ft 309 kts 34°
2026-05-05 00:06 25.25176 -81.22757 12982 ft 309 kts 33°
2026-05-05 00:06 25.26864 -81.21296 12982 ft 309 kts 33°
2026-05-05 00:06 25.28557 -81.19828 12981 ft 310 kts 33°
2026-05-05 00:06 25.30269 -81.18343 12984 ft 309 kts 33°
2026-05-05 00:07 25.31945 -81.16888 12982 ft 309 kts 33°
2026-05-05 00:07 25.33632 -81.15424 12980 ft 309 kts 33°
2026-05-05 00:07 25.35333 -81.13947 12983 ft 309 kts 33°
2026-05-05 00:07 25.37002 -81.12497 12976 ft 309 kts 33°
2026-05-05 00:08 25.38686 -81.11033 12979 ft 309 kts 33°
2026-05-05 00:08 25.40379 -81.09562 12980 ft 309 kts 33°
2026-05-05 00:08 25.42070 -81.08092 12980 ft 308 kts 33°
2026-05-05 00:08 25.43741 -81.06638 12982 ft 308 kts 33°
2026-05-05 00:09 25.45447 -81.05152 12990 ft 308 kts 33°
2026-05-05 00:09 25.47110 -81.03706 12985 ft 308 kts 34°
2026-05-05 00:09 25.48801 -81.02232 12984 ft 308 kts 34°
2026-05-05 00:09 25.50483 -81.00766 12984 ft 308 kts 34°
2026-05-05 00:10 25.51895 -80.98959 12978 ft 316 kts 57°
2026-05-05 00:10 25.52876 -80.96767 12988 ft 317 kts 62°
2026-05-05 00:10 25.53843 -80.94558 12988 ft 318 kts 61°
2026-05-05 00:10 25.54803 -80.92375 12987 ft 318 kts 62°
2026-05-05 00:11 25.55767 -80.90189 12991 ft 317 kts 61°
2026-05-05 00:11 25.56723 -80.88023 12989 ft 317 kts 61°
2026-05-05 00:11 25.57695 -80.85827 12989 ft 317 kts 61°
2026-05-05 00:11 25.58671 -80.83618 12987 ft 317 kts 62°
2026-05-05 00:12 25.59628 -80.81441 12984 ft 317 kts 62°
2026-05-05 00:12 25.60582 -80.79270 12979 ft 317 kts 61°
2026-05-05 00:12 25.61554 -80.77061 12980 ft 317 kts 62°
2026-05-05 00:12 25.62514 -80.74876 12978 ft 317 kts 62°
2026-05-05 00:13 25.63479 -80.72678 12983 ft 316 kts 62°
2026-05-05 00:13 25.64447 -80.70473 12980 ft 317 kts 62°
2026-05-05 00:13 25.65402 -80.68298 12945 ft 312 kts 62°
2026-05-05 00:13 25.66328 -80.66184 12540 ft 303 kts 62°
2026-05-05 00:14 25.67241 -80.64101 12148 ft 295 kts 62°
2026-05-05 00:14 25.68118 -80.62101 11786 ft 289 kts 62°
2026-05-05 00:14 25.68989 -80.60113 11424 ft 284 kts 63°
2026-05-05 00:14 25.69852 -80.58144 11066 ft 280 kts 62°
2026-05-05 00:15 25.70692 -80.56224 10721 ft 276 kts 63°
2026-05-05 00:15 25.71495 -80.54392 10345 ft 274 kts 63°
2026-05-05 00:15 25.72505 -80.52607 9953 ft 269 kts 43°
2026-05-05 00:15 25.74044 -80.51551 9592 ft 260 kts 13°
2026-05-05 00:16 25.75787 -80.51233 9260 ft 253 kts
2026-05-05 00:16 25.77535 -80.51018 8903 ft 252 kts
2026-05-05 00:16 25.79256 -80.50815 8553 ft 250 kts
2026-05-05 00:16 25.80996 -80.50620 8196 ft 249 kts
2026-05-05 00:17 25.82717 -80.50439 7841 ft 248 kts
2026-05-05 00:17 25.84436 -80.50271 7487 ft 247 kts
2026-05-05 00:17 25.86128 -80.50111 7138 ft 246 kts
2026-05-05 00:17 25.87822 -80.49961 7003 ft 234 kts
2026-05-05 00:18 25.89404 -80.49821 6983 ft 221 kts
2026-05-05 00:18 25.90890 -80.49682 6985 ft 210 kts
2026-05-05 00:18 25.92315 -80.49556 6981 ft 200 kts
2026-05-05 00:18 25.93688 -80.49437 6818 ft 201 kts
2026-05-05 00:19 25.95134 -80.49324 6466 ft 211 kts
2026-05-05 00:19 25.96587 -80.49223 6130 ft 218 kts
2026-05-05 00:19 25.98118 -80.49126 5774 ft 223 kts
2026-05-05 00:19 25.99680 -80.49046 5424 ft 226 kts
2026-05-05 00:20 26.01275 -80.48998 5073 ft 229 kts
2026-05-05 00:20 26.02840 -80.48972 4725 ft 230 kts
2026-05-05 00:20 26.04448 -80.48951 4370 ft 231 kts
2026-05-05 00:20 26.06050 -80.48838 3989 ft 230 kts 16°
2026-05-05 00:21 26.07389 -80.47949 3624 ft 226 kts 48°
2026-05-05 00:21 26.08119 -80.46434 3255 ft 224 kts 77°
2026-05-05 00:21 26.07994 -80.44752 3017 ft 219 kts 110°
2026-05-05 00:21 26.07308 -80.43328 2996 ft 206 kts 112°
2026-05-05 00:22 26.06936 -80.41854 2950 ft 194 kts 95°
2026-05-05 00:22 26.06838 -80.40403 2883 ft 180 kts 92°
2026-05-05 00:22 26.06771 -80.39076 2780 ft 168 kts 90°
2026-05-05 00:22 26.06734 -80.37812 2646 ft 163 kts 90°
2026-05-05 00:23 26.06713 -80.36490 2553 ft 179 kts 89°
2026-05-05 00:23 26.06699 -80.35062 2501 ft 189 kts 89°
2026-05-05 00:23 26.06685 -80.33576 2483 ft 195 kts 89°
2026-05-05 00:23 26.06673 -80.32057 2487 ft 198 kts 89°
2026-05-05 00:24 26.06663 -80.30557 2478 ft 193 kts 89°
2026-05-05 00:24 26.06654 -80.29083 2254 ft 192 kts 89°
2026-05-05 00:24 26.06648 -80.27612 2026 ft 190 kts 89°
2026-05-05 00:24 26.06641 -80.26153 1862 ft 186 kts 88°
2026-05-05 00:25 26.06634 -80.24760 1600 ft 176 kts 88°
2026-05-05 00:25 26.06630 -80.23438 1360 ft 178 kts 88°
2026-05-05 00:25 26.06621 -80.22118 1111 ft 166 kts 88°
2026-05-05 00:25 26.06614 -80.20957 914 ft 139 kts 88°
2026-05-05 00:26 26.06615 -80.19866 735 ft 143 kts 89°
2026-05-05 00:26 26.06599 -80.18795 547 ft 142 kts 89°
2026-05-05 00:26 26.06600 -80.17724 379 ft 136 kts 89°
2026-05-05 00:26 26.06591 -80.16739 228 ft 124 kts 88°
2026-05-05 00:27 26.06587 -80.15829 39 ft 110 kts 88°
2026-05-05 00:27 26.06585 -80.15080 8 ft 91 kts 89°
2026-05-05 00:27 26.06582 -80.14571 8 ft 37 kts 90°
2026-05-05 00:27 26.06581 -80.14409 8 ft 15 kts 89°
2026-05-05 00:28 26.06629 -80.14240 8 ft 27 kts 31°
2026-05-05 00:28 26.06664 -80.14230 8 ft 3 kts 335°
2026-05-05 00:28 26.06686 -80.14255 8 ft 4 kts 287°